User: anonymous   Login
Location: Brno
(49.2000°N, 16.6330°E)
Time: 12:52:15
(UTC+02:00)
Language:

Tiros 1 - Orbit

View from above orbital plane
View from above orbital plane
View from above satellite
View from above satellite

Ground track
Ground track

The orbit data is extracted from the following two-line orbital elements,

1 00029U 60002B   21214.55712414 -.00000124  00000-0  12486-4 0  9991
2 00029  48.3789 168.3705 0024034 192.9406 167.0891 14.74442861279209
Epoch (UTC): 02 August 2021 13:22:15
Eccentricity: 0.0024034
inclination: 48.3789°
perigee height: 630 km
apogee height: 664 km
right ascension of ascending node: 168.3705°
argument of perigee: 192.9406°
revolutions per day: 14.74442861
mean anomaly at epoch: 167.0891°
orbit number at epoch: 27920

The dashed part of the orbit path shows where the satellite is in the earth's shadow,  

DLR